Regional Weather Roundup
Issued by NWS Burlington, VT

Home | Current Version | Previous Version | Text Only | Print | Product List | Glossary On
Versions: 1 2 3 4 5 6 7 8 9 10 11 12 13 14 15 16 17 18 19 20 21 22 23 24 25 26 27 28 29 30 31 32 33 34 35 36 37 38 39 40 41 42 43 44 45 46 47 48 49 50
000
ASUS41 KBTV 280530
RWRBTV
VERMONT REGIONAL WEATHER ROUNDUP
NATIONAL WEATHER SERVICE BURLINGTON VT
100 AM EDT WED SEP 28 2016

NOTE: "FAIR" INDICATES FEW OR NO CLOUDS BELOW 12,000 FEET WITH NO
SIGNIFICANT WEATHER AND/OR OBSTRUCTIONS TO VISIBILITY.

* THESE REPORTS ARE NOT UNDER NWS QUALITY CONTROL AND/OR DO NOT
  REPORT WEATHER SUCH AS PRECIPITATION AND FOG.

VTZ001>019-280600-
_____VERMONT_____


CITY           SKY/WX    TMP DP  RH WIND       PRES   REMARKS
BURLINGTON     CLEAR     54  49  83 E5        30.04R
MONTPELIER     CLEAR     46  44  93 E3        30.09R
MORRISVILLE    MOCLDY    45  43  93 CALM      30.08R FOG
ST. JOHNSBURY*   N/A     49  48  97 MISG      30.06R
LYNDONVILLE*     N/A     47  46  97 CALM      30.09R FOG
MIDDLEBURY*    CLOUDY    51  51 100 CALM      30.03R
RUTLAND*       CLEAR     48  46  93 SE6       30.05R
SPRINGFIELD    FOG       46  45  96 CALM      30.08R VSB 3/4
HIGHGATE*      MOCLDY    55  52  92 E6        30.05R
NEWPORT*       CLOUDY    50  48  95 E3        30.09R
BENNINGTON     PTCLDY    56  50  80 CALM      30.03R
ISLAND POND*     N/A     39 N/A N/A CALM        N/A
GALLUP MILLS*    N/A     43 N/A N/A MISG        N/A
UNION VILLAGE*   N/A     46 N/A N/A MISG        N/A
MT. MANSFIELD*   N/A     48 N/A N/A SW12        N/A

_____LAKE CHAMPLAIN_____


CITY           SKY/WX    TMP DP  RH WIND       PRES   REMARKS
BURTON ISLAND*   N/A     57  54  88 N1          N/A
COLCHESTER RF*   N/A     63  54  72 N10         N/A
DIAMOND ISL*     N/A     61  54  77 N9          N/A

$$

NYZ007-026>031-035-052-083-087-280600-
_____NORTHERN NEW YORK_____


CITY           SKY/WX    TMP DP  RH WIND       PRES   REMARKS
PLATTSBURGH    CLOUDY    52  49  89 CALM      30.05R
SARANAC LAKE   MOCLDY    40  38  93 CALM      30.04R
MASSENA        CLOUDY    54  49  83 CALM      30.01R
OGDENSBURG*    CLEAR     52  46  82 CALM      29.99R
POTSDAM*       PTCLDY    54  48  82 CALM      30.01R
STARK FALLS*     N/A     66 N/A N/A SE6         N/A
WATERTOWN      CLEAR     54  43  66 SE5       29.97R
FT DRUM        CLEAR     54  45  70 SE13      29.98R
ALBANY         PTCLDY    54  51  90 CALM      30.02R
GLENS FALLS    CLEAR     47  44  90 CALM      30.03R FOG

$$
NHZ002-005-011-280600-
_____NEW HAMPSHIRE_____


CITY           SKY/WX    TMP DP  RH WIND       PRES   REMARKS
LEBANON        FOG       50  50 100 CALM      30.07R VSB 1/4
KEENE          FOG       46  46 100 S5        30.06R VSB 1/2
MT WASHINGTON  FOG       37  37 100 S7          N/A  VSB 1/16
PLYMOUTH       FOG       47  46  97 CALM      30.09R VSB 1
WHITEFIELD     CLEAR     39  36  89 CALM      30.07R

$$

_____REGIONAL QUEBEC LOCATIONS_____


CITY           SKY/WX    TMP DP  RH WIND       PRES   REMARKS
MONTREAL       CLOUDY    55  52  88 N13       30.03R
QUEBEC CITY    CLOUDY    50  45  81 NE12      30.15R
SHERBROOKE     MOCLDY    52  50  93 NE6       30.06R

_____REGIONAL ONTARIO LOCATIONS_____


CITY           SKY/WX    TMP DP  RH WIND       PRES   REMARKS
OTTAWA         PTCLDY    50  46  87 NE7       29.99R

______KEY______
VSB  - VISIBILITY IN MILES
WCI  - WIND CHILL INDEX
HX   - HEAT INDEX
$$
NNNN




USA.gov is the U.S. government's official web portal to all federal, state and local government web resources and services.